Time,TemperatureF,DewpointF,PressureIn,WindDirection,WindDirectionDegrees,WindSpeedMPH,WindSpeedGustMPH,Humidity,HourlyPrecipIn,Conditions,Clouds,dailyrainin,SoftwareType,DateUTC
2013-07-21 00:01:00,71.0,59.0,29.80,WNW,300,0.0,0.0,67,0.00,,,0.01,,2013-07-21 04:01:00,
2013-07-21 00:11:00,71.0,59.0,29.80,WNW,300,0.0,0.0,67,0.00,,,0.01,,2013-07-21 04:11:00,
2013-07-21 00:22:00,70.0,59.0,29.81,WNW,300,0.0,0.0,68,0.00,,,0.01,,2013-07-21 04:22:00,
2013-07-21 00:32:00,70.0,59.0,29.82,WNW,300,0.0,0.0,69,0.00,,,0.01,,2013-07-21 04:32:00,
2013-07-21 00:43:00,70.0,59.0,29.82,WNW,300,0.0,0.0,69,0.00,,,0.01,,2013-07-21 04:43:00,
2013-07-21 00:53:00,70.0,60.0,29.83,WNW,300,0.0,1.0,70,0.00,,,0.01,,2013-07-21 04:53:00,
2013-07-21 01:02:00,70.0,60.0,29.83,WNW,300,0.0,1.0,70,0.00,,,0.01,,2013-07-21 05:02:00,
2013-07-21 01:11:00,69.0,60.0,29.82,WNW,300,0.0,1.0,72,0.00,,,0.01,,2013-07-21 05:11:00,
2013-07-21 01:22:00,69.0,60.0,29.82,WNW,300,0.0,1.0,72,0.00,,,0.01,,2013-07-21 05:22:00,
2013-07-21 01:32:00,68.0,59.0,29.82,WNW,300,0.0,0.0,73,0.00,,,0.01,,2013-07-21 05:32:00,
2013-07-21 01:42:00,68.0,59.0,29.82,WNW,300,0.0,4.0,74,0.00,,,0.01,,2013-07-21 05:42:00,
2013-07-21 01:52:00,68.0,60.0,29.83,SW,234,0.0,6.0,75,0.00,,,0.01,,2013-07-21 05:52:00,
2013-07-21 02:01:00,68.0,60.0,29.83,SW,234,0.0,6.0,75,0.00,,,0.01,,2013-07-21 06:01:00,
2013-07-21 02:11:00,68.0,59.0,29.83,WSW,254,0.0,5.0,74,0.00,,,0.01,,2013-07-21 06:11:00,
2013-07-21 02:22:00,68.0,59.0,29.84,WSW,254,0.0,3.0,73,0.00,,,0.01,,2013-07-21 06:22:00,
2013-07-21 02:32:00,68.0,59.0,29.84,WSW,254,0.0,3.0,73,0.00,,,0.01,,2013-07-21 06:32:00,
2013-07-21 02:43:00,69.0,60.0,29.84,WSW,256,0.0,5.0,72,0.00,,,0.01,,2013-07-21 06:43:00,
2013-07-21 02:52:00,69.0,60.0,29.84,WSW,256,0.0,3.0,72,0.00,,,0.01,,2013-07-21 06:52:00,
2013-07-21 03:01:00,69.0,60.0,29.84,WSW,256,0.0,3.0,72,0.00,,,0.01,,2013-07-21 07:01:00,
2013-07-21 03:11:00,68.0,59.0,29.84,WSW,256,0.0,3.0,74,0.00,,,0.01,,2013-07-21 07:11:00,
2013-07-21 03:22:00,68.0,59.0,29.84,WSW,256,0.0,3.0,74,0.00,,,0.01,,2013-07-21 07:22:00,
2013-07-21 03:32:00,68.0,59.0,29.84,WSW,256,0.0,0.0,74,0.00,,,0.01,,2013-07-21 07:32:00,
2013-07-21 03:43:00,68.0,60.0,29.84,WSW,256,0.0,0.0,75,0.00,,,0.01,,2013-07-21 07:43:00,
2013-07-21 03:52:00,68.0,60.0,29.84,WSW,256,0.0,0.0,75,0.00,,,0.01,,2013-07-21 07:52:00,
2013-07-21 04:02:00,68.0,60.0,29.84,WSW,256,0.0,0.0,75,0.00,,,0.01,,2013-07-21 08:02:00,
2013-07-21 04:11:00,68.0,60.0,29.84,WSW,256,0.0,0.0,76,0.00,,,0.01,,2013-07-21 08:11:00,
2013-07-21 04:22:00,68.0,60.0,29.84,WSW,256,0.0,0.0,76,0.00,,,0.01,,2013-07-21 08:22:00,
2013-07-21 04:33:00,68.0,60.0,29.84,WSW,256,0.0,0.0,76,0.00,,,0.01,,2013-07-21 08:33:00,
2013-07-21 04:43:00,68.0,61.0,29.84,WSW,256,0.0,0.0,77,0.00,,,0.01,,2013-07-21 08:43:00,
2013-07-21 04:52:00,68.0,61.0,29.85,WSW,256,0.0,0.0,77,0.00,,,0.01,,2013-07-21 08:52:00,
2013-07-21 05:02:00,68.0,61.0,29.85,WSW,256,0.0,0.0,77,0.00,,,0.01,,2013-07-21 09:02:00,
2013-07-21 05:12:00,68.0,61.0,29.86,West,269,0.0,1.0,77,0.00,,,0.01,,2013-07-21 09:12:00,
2013-07-21 05:22:00,68.0,60.0,29.86,SSE,166,0.0,2.0,76,0.00,,,0.01,,2013-07-21 09:22:00,
2013-07-21 05:32:00,68.0,60.0,29.86,SSE,166,0.0,2.0,76,0.00,,,0.01,,2013-07-21 09:32:00,
2013-07-21 05:42:00,68.0,61.0,29.87,NNE,26,0.0,0.0,77,0.00,,,0.01,,2013-07-21 09:42:00,
2013-07-21 05:52:00,67.0,60.0,29.87,NNE,26,0.0,0.0,77,0.00,,,0.01,,2013-07-21 09:52:00,
2013-07-21 06:02:00,67.0,60.0,29.87,NNE,26,0.0,0.0,77,0.00,,,0.01,,2013-07-21 10:02:00,
2013-07-21 06:11:00,67.0,60.0,29.88,NNE,26,0.0,0.0,78,0.00,,,0.01,,2013-07-21 10:11:00,
2013-07-21 06:22:00,67.0,60.0,29.88,NW,317,0.0,0.0,79,0.00,,,0.01,,2013-07-21 10:22:00,
2013-07-21 06:32:00,67.0,60.0,29.88,NW,317,0.0,0.0,79,0.00,,,0.01,,2013-07-21 10:32:00,
2013-07-21 06:43:00,67.0,61.0,29.89,NW,317,0.0,0.0,81,0.00,,,0.01,,2013-07-21 10:43:00,
2013-07-21 06:52:00,66.0,60.0,29.90,NW,317,0.0,0.0,82,0.00,,,0.01,,2013-07-21 10:52:00,
2013-07-21 07:02:00,66.0,60.0,29.90,NW,317,0.0,0.0,82,0.00,,,0.01,,2013-07-21 11:02:00,
2013-07-21 07:12:00,67.0,62.0,29.89,NW,317,0.0,1.0,84,0.00,,,0.01,,2013-07-21 11:12:00,
2013-07-21 07:22:00,67.0,62.0,29.89,NW,317,0.0,0.0,84,0.00,,,0.01,,2013-07-21 11:22:00,
2013-07-21 07:33:00,67.0,62.0,29.89,NW,317,0.0,0.0,84,0.00,,,0.01,,2013-07-21 11:33:00,
2013-07-21 07:43:00,68.0,63.0,29.90,NW,317,0.0,1.0,84,0.00,,,0.01,,2013-07-21 11:43:00,
2013-07-21 07:52:00,69.0,63.0,29.91,NW,317,0.0,0.0,82,0.00,,,0.01,,2013-07-21 11:52:00,
2013-07-21 08:01:00,69.0,63.0,29.91,NW,317,0.0,0.0,82,0.00,,,0.01,,2013-07-21 12:01:00,
2013-07-21 08:11:00,70.0,64.0,29.91,NW,318,0.0,2.0,82,0.00,,,0.01,,2013-07-21 12:11:00,
2013-07-21 08:22:00,72.0,65.0,29.92,WSW,254,0.0,3.0,78,0.00,,,0.01,,2013-07-21 12:22:00,
2013-07-21 08:32:00,72.0,65.0,29.92,WSW,254,0.0,3.0,78,0.00,,,0.01,,2013-07-21 12:32:00,
2013-07-21 08:43:00,73.0,64.0,29.93,WSW,254,0.0,3.0,74,0.00,,,0.01,,2013-07-21 12:43:00,
2013-07-21 08:53:00,74.0,65.0,29.93,WSW,254,0.0,2.0,73,0.00,,,0.01,,2013-07-21 12:53:00,
2013-07-21 09:02:00,74.0,65.0,29.93,WSW,254,0.0,2.0,73,0.00,,,0.01,,2013-07-21 13:02:00,
2013-07-21 09:12:00,75.0,65.0,29.93,East,90,0.0,6.0,71,0.00,,,0.01,,2013-07-21 13:12:00,
2013-07-21 09:22:00,76.0,64.0,29.93,East,85,0.0,3.0,67,0.00,,,0.01,,2013-07-21 13:22:00,
2013-07-21 09:33:00,76.0,64.0,29.93,East,85,0.0,3.0,67,0.00,,,0.01,,2013-07-21 13:33:00,
2013-07-21 09:43:00,77.0,65.0,29.94,East,99,0.0,5.0,66,0.00,,,0.01,,2013-07-21 13:43:00,
2013-07-21 09:52:00,77.0,65.0,29.94,East,94,0.0,3.0,67,0.00,,,0.01,,2013-07-21 13:52:00,
2013-07-21 10:01:00,77.0,65.0,29.94,East,94,0.0,3.0,67,0.00,,,0.01,,2013-07-21 14:01:00,
2013-07-21 10:12:00,77.0,65.0,29.93,East,96,0.0,1.0,67,0.00,,,0.01,,2013-07-21 14:12:00,
2013-07-21 10:23:00,77.0,65.0,29.93,East,96,0.0,1.0,67,0.00,,,0.01,,2013-07-21 14:23:00,
2013-07-21 10:32:00,78.0,65.0,29.94,ESE,102,0.0,5.0,65,0.00,,,0.01,,2013-07-21 14:32:00,
2013-07-21 10:43:00,79.0,65.0,29.94,SE,125,0.0,7.0,62,0.00,,,0.01,,2013-07-21 14:43:00,
2013-07-21 10:53:00,79.0,64.0,29.93,NE,46,0.0,1.0,61,0.00,,,0.01,,2013-07-21 14:53:00,
2013-07-21 11:02:00,79.0,64.0,29.93,NE,46,0.0,1.0,61,0.00,,,0.01,,2013-07-21 15:02:00,
2013-07-21 11:11:00,79.0,63.0,29.93,NE,48,0.0,1.0,59,0.00,,,0.01,,2013-07-21 15:11:00,
2013-07-21 11:22:00,80.0,66.0,29.94,NE,40,0.0,1.0,62,0.00,,,0.01,,2013-07-21 15:22:00,
2013-07-21 11:32:00,80.0,66.0,29.94,NE,40,0.0,1.0,62,0.00,,,0.01,,2013-07-21 15:32:00,
2013-07-21 11:43:00,81.0,65.0,29.94,NE,40,1.0,4.0,58,0.00,,,0.01,,2013-07-21 15:43:00,
2013-07-21 11:53:00,83.0,65.0,29.95,NW,311,0.0,5.0,55,0.00,,,0.01,,2013-07-21 15:53:00,
2013-07-21 12:01:00,83.0,65.0,29.95,NW,311,0.0,5.0,55,0.00,,,0.01,,2013-07-21 16:01:00,
2013-07-21 12:11:00,84.0,67.0,29.95,SSW,194,0.0,4.0,56,0.00,,,0.01,,2013-07-21 16:11:00,
2013-07-21 12:22:00,84.0,66.0,29.94,South,171,1.0,4.0,54,0.00,,,0.01,,2013-07-21 16:22:00,
2013-07-21 12:32:00,84.0,66.0,29.94,South,171,1.0,4.0,54,0.00,,,0.01,,2013-07-21 16:32:00,
2013-07-21 12:43:00,86.0,65.0,29.94,East,93,0.0,5.0,50,0.00,,,0.01,,2013-07-21 16:43:00,
2013-07-21 12:52:00,84.0,65.0,29.95,ESE,107,0.0,5.0,53,0.00,,,0.01,,2013-07-21 16:52:00,
2013-07-21 13:02:00,84.0,65.0,29.95,ESE,107,0.0,5.0,53,0.00,,,0.01,,2013-07-21 17:02:00,
2013-07-21 13:11:00,83.0,64.0,29.94,SE,133,0.0,3.0,52,0.00,,,0.01,,2013-07-21 17:11:00,
2013-07-21 13:22:00,83.0,64.0,29.94,SE,142,0.0,3.0,53,0.00,,,0.01,,2013-07-21 17:22:00,
2013-07-21 13:33:00,83.0,64.0,29.94,SE,142,0.0,3.0,53,0.00,,,0.01,,2013-07-21 17:33:00,
2013-07-21 13:43:00,84.0,63.0,29.94,SE,140,1.0,5.0,50,0.00,,,0.01,,2013-07-21 17:43:00,
2013-07-21 13:53:00,84.0,64.0,29.94,SE,140,0.0,1.0,52,0.00,,,0.01,,2013-07-21 17:53:00,
2013-07-21 14:01:00,84.0,64.0,29.94,SE,140,0.0,1.0,52,0.00,,,0.01,,2013-07-21 18:01:00,
2013-07-21 14:11:00,84.0,63.0,29.94,WSW,256,0.0,6.0,50,0.00,,,0.01,,2013-07-21 18:11:00,
2013-07-21 14:22:00,85.0,64.0,29.94,WSW,245,0.0,4.0,49,0.00,,,0.01,,2013-07-21 18:22:00,
2013-07-21 14:32:00,85.0,64.0,29.94,WSW,245,0.0,4.0,49,0.00,,,0.01,,2013-07-21 18:32:00,
2013-07-21 14:43:00,84.0,66.0,29.93,SSE,160,0.0,8.0,54,0.00,,,0.01,,2013-07-21 18:43:00,
2013-07-21 14:52:00,84.0,65.0,29.93,West,268,3.0,6.0,53,0.00,,,0.01,,2013-07-21 18:52:00,
2013-07-21 15:01:00,84.0,65.0,29.93,West,268,3.0,6.0,53,0.00,,,0.01,,2013-07-21 19:01:00,
2013-07-21 15:11:00,84.0,67.0,29.93,SSE,156,1.0,10.0,56,0.00,,,0.01,,2013-07-21 19:11:00,
2013-07-21 15:22:00,84.0,67.0,29.93,SSE,156,1.0,10.0,56,0.00,,,0.01,,2013-07-21 19:22:00,
2013-07-21 15:32:00,84.0,66.0,29.93,SE,130,0.0,5.0,54,0.00,,,0.01,,2013-07-21 19:32:00,
2013-07-21 15:42:00,84.0,66.0,29.93,SSE,150,0.0,1.0,54,0.00,,,0.01,,2013-07-21 19:42:00,
2013-07-21 15:52:00,84.0,64.0,29.93,ESE,111,0.0,3.0,52,0.00,,,0.01,,2013-07-21 19:52:00,
2013-07-21 16:02:00,84.0,64.0,29.93,ESE,111,0.0,3.0,52,0.00,,,0.01,,2013-07-21 20:02:00,
2013-07-21 16:12:00,84.0,61.0,29.93,WSW,251,2.0,8.0,46,0.00,,,0.01,,2013-07-21 20:12:00,
2013-07-21 16:22:00,83.0,64.0,29.93,WSW,251,0.0,1.0,52,0.00,,,0.00,,2013-07-21 20:22:00,
2013-07-21 16:32:00,83.0,64.0,29.93,WSW,251,0.0,1.0,52,0.00,,,0.00,,2013-07-21 20:32:00,
2013-07-21 16:43:00,82.0,67.0,29.93,WSW,250,0.0,1.0,60,0.00,,,0.00,,2013-07-21 20:43:00,
2013-07-21 16:52:00,84.0,65.0,29.93,WSW,248,0.0,1.0,53,0.00,,,0.00,,2013-07-21 20:52:00,
2013-07-21 17:01:00,84.0,65.0,29.93,WSW,248,0.0,1.0,53,0.00,,,0.00,,2013-07-21 21:01:00,
2013-07-21 17:11:00,83.0,62.0,29.93,SW,232,0.0,5.0,50,0.00,,,0.00,,2013-07-21 21:11:00,
2013-07-21 17:22:00,84.0,64.0,29.92,SW,215,1.0,5.0,52,0.00,,,0.00,,2013-07-21 21:22:00,
2013-07-21 17:32:00,84.0,64.0,29.92,SW,215,1.0,5.0,52,0.00,,,0.00,,2013-07-21 21:32:00,
2013-07-21 17:43:00,84.0,64.0,29.92,SW,214,0.0,3.0,51,0.00,,,0.00,,2013-07-21 21:43:00,
2013-07-21 17:52:00,85.0,62.0,29.92,SSW,205,0.0,4.0,47,0.00,,,0.00,,2013-07-21 21:52:00,
2013-07-21 18:01:00,85.0,62.0,29.92,SSW,205,0.0,4.0,47,0.00,,,0.00,,2013-07-21 22:01:00,
2013-07-21 18:11:00,85.0,62.0,29.92,SSW,205,0.0,1.0,47,0.00,,,0.00,,2013-07-21 22:11:00,
2013-07-21 18:22:00,85.0,62.0,29.92,SSW,205,0.0,1.0,47,0.00,,,0.00,,2013-07-21 22:22:00,
2013-07-21 18:32:00,85.0,64.0,29.91,SSW,205,0.0,1.0,49,0.00,,,0.00,,2013-07-21 22:32:00,
2013-07-21 18:43:00,84.0,63.0,29.92,SSW,205,0.0,1.0,50,0.00,,,0.00,,2013-07-21 22:43:00,
2013-07-21 18:52:00,83.0,68.0,29.92,SSW,205,0.0,1.0,60,0.00,,,0.00,,2013-07-21 22:52:00,
2013-07-21 19:02:00,83.0,68.0,29.92,SSW,205,0.0,1.0,60,0.00,,,0.00,,2013-07-21 23:02:00,
2013-07-21 19:11:00,81.0,67.0,29.91,SSW,205,0.0,0.0,62,0.00,,,0.00,,2013-07-21 23:11:00,
2013-07-21 19:22:00,81.0,67.0,29.91,SSW,205,0.0,0.0,62,0.00,,,0.00,,2013-07-21 23:22:00,
2013-07-21 19:32:00,80.0,68.0,29.92,SSW,205,0.0,1.0,67,0.00,,,0.00,,2013-07-21 23:32:00,
2013-07-21 19:43:00,79.0,68.0,29.93,SSW,205,0.0,3.0,69,0.00,,,0.00,,2013-07-21 23:43:00,
2013-07-21 19:53:00,78.0,67.0,29.93,SSW,202,0.0,3.0,69,0.00,,,0.00,,2013-07-21 23:53:00,
2013-07-21 20:01:00,78.0,67.0,29.93,SSW,202,0.0,3.0,69,0.00,,,0.00,,2013-07-22 00:01:00,
2013-07-21 20:11:00,77.0,66.0,29.93,SSW,200,0.0,4.0,70,0.00,,,0.00,,2013-07-22 00:11:00,
2013-07-21 20:22:00,76.0,65.0,29.93,SSW,200,0.0,4.0,70,0.00,,,0.00,,2013-07-22 00:22:00,
2013-07-21 20:32:00,76.0,65.0,29.93,SSW,200,0.0,4.0,70,0.00,,,0.00,,2013-07-22 00:32:00,
2013-07-21 20:42:00,75.0,65.0,29.93,SSW,200,0.0,1.0,71,0.00,,,0.00,,2013-07-22 00:42:00,
2013-07-21 20:52:00,74.0,65.0,29.94,SSW,200,0.0,0.0,73,0.00,,,0.00,,2013-07-22 00:52:00,
2013-07-21 21:02:00,74.0,65.0,29.94,SSW,200,0.0,0.0,73,0.00,,,0.00,,2013-07-22 01:02:00,
2013-07-21 21:12:00,73.0,65.0,29.95,SSW,200,0.0,0.0,76,0.00,,,0.00,,2013-07-22 01:12:00,
2013-07-21 21:22:00,73.0,65.0,29.95,SSW,200,0.0,0.0,77,0.00,,,0.00,,2013-07-22 01:22:00,
2013-07-21 21:32:00,73.0,65.0,29.95,SSW,200,0.0,0.0,77,0.00,,,0.00,,2013-07-22 01:32:00,
2013-07-21 21:42:00,72.0,65.0,29.96,SSW,200,0.0,0.0,78,0.00,,,0.00,,2013-07-22 01:42:00,
2013-07-21 21:52:00,72.0,65.0,29.97,SSW,200,0.0,0.0,79,0.00,,,0.00,,2013-07-22 01:52:00,
2013-07-21 22:02:00,72.0,65.0,29.97,SSW,200,0.0,0.0,79,0.00,,,0.00,,2013-07-22 02:02:00,
2013-07-21 22:11:00,71.0,64.0,29.97,SSW,200,0.0,0.0,79,0.00,,,0.00,,2013-07-22 02:11:00,
2013-07-21 22:22:00,71.0,65.0,29.98,SSW,200,0.0,0.0,80,0.00,,,0.00,,2013-07-22 02:22:00,
2013-07-21 22:32:00,71.0,65.0,29.98,SSW,200,0.0,0.0,80,0.00,,,0.00,,2013-07-22 02:32:00,
2013-07-21 22:43:00,71.0,65.0,29.98,SSW,200,0.0,0.0,81,0.00,,,0.00,,2013-07-22 02:43:00,
2013-07-21 22:52:00,71.0,65.0,29.97,SSW,200,0.0,0.0,81,0.00,,,0.00,,2013-07-22 02:52:00,
2013-07-21 23:01:00,71.0,65.0,29.97,SSW,200,0.0,0.0,81,0.00,,,0.00,,2013-07-22 03:01:00,
2013-07-21 23:12:00,70.0,64.0,29.98,SSW,200,0.0,0.0,82,0.00,,,0.00,,2013-07-22 03:12:00,
2013-07-21 23:22:00,70.0,65.0,29.98,SSW,200,0.0,0.0,84,0.00,,,0.00,,2013-07-22 03:22:00,
2013-07-21 23:33:00,70.0,65.0,29.98,SSW,200,0.0,0.0,84,0.00,,,0.00,,2013-07-22 03:33:00,
2013-07-21 23:43:00,69.0,64.0,29.98,SSW,200,0.0,0.0,84,0.00,,,0.00,,2013-07-22 03:43:00,
2013-07-21 23:53:00,69.0,65.0,29.98,SSW,200,0.0,0.0,86,0.00,,,0.00,,2013-07-22 03:53:00,